SL-3 R/B, 14208

Orbit data source: Space-Track

SL-3 R/B, 14208 is space debris in SSO originally from a launch on Sun, 24 Jul 1983 UTC launched from the Tyuratam Missile And Space Complex (TTMTR). Debris objects in space refer to the collection of defunct objects orbiting the Earth. Examples of debris include non-operational satellites, rocket bodies, and fragments generated from explosions, collisions, or faulty payload assembly.

Loading next visibility...
Identifier
14208, 1983-075B
Orbit
SSO
Country
Flag of CISCIS
Related business
Manufacturer
Progress
Mission
Spacecraft
Bus & Motor
BLOK-E, Unknown motor
Mass
1,440 kg wet, 1,440 kg dry
Launch date (UTC)
1983-07-24 (43 years ago)
Launch vehicle
Unknown
Launch site
Tyuratam Missile And Space Complex (TTMTR)
Object type
Payload
Rocket body
Debris
Shape & HBR
CYL, 1.1 m
Radar Cross Section
Large (>1 m²)

Expand to show TLE details & history
Last TLE update: 7 hours ago

TLE from 7 hours ago
0 SL-3 R/B
1 14208U 83075B   26267.13747884  .00007937  00000-0  18631-3 0  9991
2 14208  97.6118 279.8208 0018262 233.8945 126.0611 15.42162707360706
Epoch: 2026-09-24T03:17Z
TLE epoch observation values (Epoch: 2026-09-24T03:17:58.171Z)
Latitude
-0.00007°
Longitude
-132.65013°
Altitude
450.188 km
Speed
7.638 km/s
True Right ascension
18h 39m 16s
True Declination
0° 00' 00"
Sunlit
Object was in daylight at epoch
Visualization orbit readout
Latitude
Unknown
Longitude
Unknown
Altitude
Unknown
Speed
Unknown
Apparent Right ascension
Unknown
Apparent Declination
Unknown
Sunlit
N/A
Visualization observer readout
Local Sidereal Time
03:33:21
Azimuth
Unknown
Elevation
Unknown
Doppler factor
Unknown
Orbital elements
Apogee altitude
449.118 km
Perigee altitude
424.228 km
Semi-major axis
6,814.81 km
Eccentricity
0.00183
Inclination
97.6118°
RAAN
279.8208°
Arg. of periapsis
233.8945°
True anomaly
126.23004°
Mean anomaly
126.0611°
Eccentric anomaly
126.14559°
Mean motion
3.858 °/min
Orbital period
93.31 mins
BSTAR
0.00018631

Documentation

Showing up to 5 results
|